Weather History for KWMC - October, 2012

Change the Weather History Date:

Friday, October 19, 2012

  Actual Average Record
Temperature  
Mean Temperature 52 °F 47 °F  
Max Temperature 78 °F 66 °F 84 °F (1927)
Min Temperature 26 °F 29 °F 15 °F (1932)
Degree Days  
Heating Degree Days 13 18  
Month to date heating degree days 218 276  
Since 1 July heating degree days 296 480  
Cooling Degree Days 0 0  
Month to date cooling degree days 0 0  
Year to date cooling degree days 681 541  
Growing Degree Days 2 (Base 50)    
Moisture  
Dew Point 16 °F    
Average Humidity 25    
Maximum Humidity 38    
Minimum Humidity 11    
Precipitation  
Precipitation 0.00 in 0.03 in 0.58 in (1957)
Month to date precipitation T 0.40  
Year to date precipitation 3.41 6.20  
Snow  
Snow 0.00 in 0.00 in 0.80 in (1984)
Month to date snowfall 0.0 0.2  
Since 1 July snowfall 0.0 0.2  
Since 1 September snowfall 0.0 0.2  
Snow Depth 0.00 in    
Sea Level Pressure  
Sea Level Pressure 29.98 in    
Wind  
Wind Speed 6 mph (South)    
Max Wind Speed 16 mph    
Max Gust Speed 28 mph    
Visibility 10 miles    
Events      
T = Trace of Precipitation, MM = Missing Value Source: NWS Daily Summary

Daily Weather History Graph

Daily Weather History Graph

Search for Another Location

Airport or City:

Trip Planner

Search our weather history database for the weather conditions in past years. The results will help you decide how hot, cold, wet, or windy it might be!

Date:

Astronomy

Oct. 19, 2012 Rise Set
Actual Time 7:07 AM PDT 6:03 PM PDT
Civil Twilight 6:39 AM PDT 6:31 PM PDT
Nautical Twilight 6:07 AM PDT 7:03 PM PDT
Astronomical Twilight 5:36 AM PDT 7:35 PM PDT
Moon 11:56 AM PDT (10/19) 9:46 PM PDT (10/19)
Length of Visible Light 11h 51m
Length of Day
10h 56m
Waxing Crescent, 24% of the Moon is Illuminated
Oct 19
Waxing Crescent
Oct 21
First Quarter
Oct 29
Full
Nov 6
Last Quarter
Nov 13
New

Hourly Weather History & Observations

Time (PDT) Temp. Windchill Dew Point Humidity Pressure Visibility Wind Dir Wind Speed Gust Speed Precip Events Conditions
12:56 AM 37.0 °F 33.3 °F 10.0 °F 33% 30.09 in 10.0 mi SSE 4.6 mph - N/A   Clear
1:56 AM 34.0 °F - 5.0 °F 30% 30.09 in 10.0 mi Calm Calm - N/A   Clear
2:56 AM 34.0 °F - 9.0 °F 35% 30.09 in 10.0 mi Calm Calm - N/A   Clear
3:56 AM 34.0 °F 29.8 °F 10.0 °F 37% 30.07 in 10.0 mi East 4.6 mph - N/A   Clear
4:56 AM 32.0 °F 28.7 °F 8.1 °F 37% 30.08 in 10.0 mi North 3.5 mph - N/A   Clear
5:56 AM 27.0 °F 23.0 °F 5.0 °F 39% 30.09 in 10.0 mi SSE 3.5 mph - N/A   Clear
6:56 AM 32.0 °F 26.4 °F 8.1 °F 37% 30.13 in 10.0 mi ENE 5.8 mph - N/A   Clear
7:56 AM 36.0 °F - 12.0 °F 37% 30.14 in 10.0 mi Calm Calm - N/A   Clear
9:56 AM 57.9 °F - 14.0 °F 18% 30.09 in 10.0 mi Calm Calm - N/A   Clear
10:56 AM 66.9 °F - 15.1 °F 14% 30.05 in 10.0 mi Calm Calm - N/A   Clear
11:56 AM 73.0 °F - 23.0 °F 15% 30.01 in 10.0 mi Variable 5.8 mph - N/A   Clear
12:56 PM 75.0 °F - 19.9 °F 13% 29.99 in 10.0 mi WSW 12.7 mph 20.7 mph N/A   Clear
1:56 PM 77.0 °F - 21.9 °F 13% 29.95 in 10.0 mi Variable 6.9 mph - N/A   Clear
2:56 PM 77.0 °F - 19.9 °F 12% 29.93 in 10.0 mi SW 16.1 mph 21.9 mph N/A   Clear
3:56 PM 75.0 °F - 19.9 °F 13% 29.91 in 10.0 mi SW 13.8 mph 18.4 mph N/A   Clear
4:56 PM 73.0 °F - 19.9 °F 14% 29.90 in 10.0 mi SSW 8.1 mph - N/A   Clear
5:56 PM 71.1 °F - 19.9 °F 14% 29.90 in 10.0 mi SSW 9.2 mph - N/A   Clear
6:56 PM 60.1 °F - 19.9 °F 21% 29.89 in 10.0 mi South 6.9 mph - N/A   Clear
7:56 PM 61.0 °F - 19.0 °F 20% 29.87 in 10.0 mi South 9.2 mph - N/A   Scattered Clouds
8:56 PM 57.9 °F - 21.0 °F 24% 29.85 in 10.0 mi SSE 5.8 mph - N/A   Clear
9:56 PM 59.0 °F - 21.0 °F 23% 29.83 in 10.0 mi South 8.1 mph - 0.01 in   Clear
10:56 PM 62.1 °F - 23.0 °F 22% 29.81 in 10.0 mi Calm Calm - N/A   Clear
11:56 PM 62.1 °F - 26.1 °F 25% 29.79 in 10.0 mi SW 10.4 mph - N/A   Clear